| time (UTC) | temp C | wind direction | speed KPH | gust KPH | rain 1hr cm | rain 24hr cm | rain mn cm | humidity % | barometer mb |
| 20260504215148 | 7 | 77 | 3.2 | 3.2 | 0.00 | 0.05 | 0.05 | 99 | 1014.9 |
| 20260504214643 | 7 | 77 | 3.2 | 3.2 | 0.00 | 0.05 | 0.05 | 99 | 1014.9 |
| 20260504214140 | 7 | 296 | 6.4 | 6.4 | 0.13 | 0.05 | 0.05 | 99 | 1014.9 |
| 20260504213636 | 7 | 296 | 6.4 | 6.4 | 0.13 | 0.05 | 0.05 | 99 | 1014.9 |
| 20260504213133 | 7 | 312 | 9.7 | 11.3 | 0.00 | 0.03 | 0.03 | 99 | 1014.9 |
| 20260504212629 | 7 | 312 | 9.7 | 11.3 | 0.00 | 0.03 | 0.03 | 99 | 1014.9 |
| 20260504212126 | 7 | 334 | 9.7 | 12.9 | 0.18 | 0.03 | 0.03 | 99 | 1014.8 |
| 20260504211624 | 7 | 334 | 9.7 | 12.9 | 0.18 | 0.03 | 0.03 | 99 | 1014.8 |
| 20260504211120 | 8 | 274 | 12.9 | 14.5 | 0.00 | 0.00 | 0.00 | 99 | 1014.9 |
| 20260504210618 | 8 | 274 | 12.9 | 14.5 | 0.00 | 0.00 | 0.00 | 99 | 1014.9 |
| 20260504210114 | 9 | 282 | 6.4 | 12.9 | 0.00 | 0.00 | 0.00 | 99 | 1014.6 |
| 20260504205612 | 9 | 282 | 6.4 | 12.9 | 0.00 | 0.00 | 0.00 | 99 | 1014.6 |
| 20260504205109 | 10 | 259 | 8.0 | 11.3 | 0.00 | 0.00 | 0.00 | 99 | 1014.1 |
| 20260504204608 | 10 | 259 | 8.0 | 11.3 | 0.00 | 0.00 | 0.00 | 99 | 1014.1 |
| 20260504204106 | 11 | 259 | 16.1 | 17.7 | 0.00 | 0.00 | 0.00 | 99 | 1013.8 |
| 20260504203604 | 11 | 259 | 16.1 | 17.7 | 0.00 | 0.00 | 0.00 | 99 | 1013.8 |
| 20260504203101 | 10 | 326 | 12.9 | 16.1 | 0.00 | 0.00 | 0.00 | 99 | 1013.9 |
| 20260504202556 | 10 | 326 | 12.9 | 16.1 | 0.00 | 0.00 | 0.00 | 99 | 1013.9 |
| 20260504202054 | 10 | 262 | 16.1 | 16.1 | 0.00 | 0.00 | 0.00 | 99 | 1013.7 |
| 20260504201550 | 10 | 262 | 16.1 | 16.1 | 0.00 | 0.00 | 0.00 | 99 | 1013.7 |
| 20260504201049 | 11 | 273 | 8.0 | 11.3 | 0.00 | 0.00 | 0.00 | 99 | 1013.4 |
| 20260504200544 | 11 | 273 | 8.0 | 11.3 | 0.00 | 0.00 | 0.00 | 99 | 1013.4 |
| 20260504200042 | 12 | 87 | 9.7 | 14.5 | 0.00 | 0.00 | 0.00 | 99 | 1013.3 |
| 20260504195537 | 12 | 87 | 9.7 | 14.5 | 0.00 | 0.00 | 0.00 | 99 | 1013.3 |
| 20260504195034 | 12 | 201 | 14.5 | 17.7 | 0.00 | 0.00 | 0.00 | 99 | 1013.3 |
| 20260504194531 | 12 | 201 | 14.5 | 17.7 | 0.00 | 0.00 | 0.00 | 99 | 1013.3 |
| 20260504194026 | 12 | 262 | 6.4 | 12.9 | 0.00 | 0.00 | 0.00 | 99 | 1013.8 |
| 20260504193523 | 12 | 262 | 6.4 | 12.9 | 0.00 | 0.00 | 0.00 | 99 | 1013.8 |
| 20260504193022 | 13 | 322 | 9.7 | 16.1 | 0.00 | 0.00 | 0.00 | 99 | 1013.8 |
| 20260504192520 | 13 | 322 | 9.7 | 16.1 | 0.00 | 0.00 | 0.00 | 99 | 1013.8 |
| 20260504192018 | 12 | 44 | 11.3 | 16.1 | 0.00 | 0.00 | 0.00 | 99 | 1013.2 |
| 20260504191515 | 12 | 44 | 11.3 | 16.1 | 0.00 | 0.00 | 0.00 | 99 | 1013.2 |
| 20260504191011 | 13 | 42 | 12.9 | 16.1 | 0.00 | 0.00 | 0.00 | 99 | 1013.2 |
| 20260504190507 | 13 | 42 | 12.9 | 16.1 | 0.00 | 0.00 | 0.00 | 99 | 1013.2 |
| 20260504190003 | 15 | 134 | 19.3 | 22.5 | 0.00 | 0.00 | 0.00 | 99 | 1013.4 |
| 20260504185500 | 15 | 134 | 19.3 | 22.5 | 0.00 | 0.00 | 0.00 | 99 | 1013.4 |
| 20260504184957 | 16 | 73 | 25.7 | 30.6 | 0.00 | 0.00 | 0.00 | 99 | 1013.3 |
| 20260504184452 | 16 | 73 | 25.7 | 30.6 | 0.00 | 0.00 | 0.00 | 99 | 1013.3 |
| 20260504183948 | 16 | 99 | 24.1 | 27.4 | 0.00 | 0.00 | 0.00 | 99 | 1013.4 |
| 20260504183446 | 16 | 99 | 24.1 | 27.4 | 0.00 | 0.00 | 0.00 | 99 | 1013.4 |
| 20260504182944 | 14 | 150 | 27.4 | 29.0 | 0.00 | 0.00 | 0.00 | 99 | 1013.4 |
| 20260504182440 | 14 | 150 | 27.4 | 29.0 | 0.00 | 0.00 | 0.00 | 99 | 1013.4 |
| 20260504181938 | 15 | 90 | 25.7 | 29.0 | 0.00 | 0.00 | 0.00 | 99 | 1013.3 |
| 20260504181434 | 15 | 90 | 25.7 | 29.0 | 0.00 | 0.00 | 0.00 | 99 | 1013.3 |
| 20260504180933 | 15 | 82 | 20.9 | 29.0 | 0.00 | 0.00 | 0.00 | 99 | 1013.2 |
| 20260504180432 | 15 | 82 | 20.9 | 29.0 | 0.00 | 0.00 | 0.00 | 99 | 1013.2 |
| 20260504175930 | 16 | 53 | 12.9 | 16.1 | 0.00 | 0.00 | 0.00 | 99 | 1013.4 |
| 20260504175426 | 16 | 53 | 12.9 | 16.1 | 0.00 | 0.00 | 0.00 | 99 | 1013.4 |
| 20260504174924 | 15 | 85 | 12.9 | 16.1 | 0.00 | 0.00 | 0.00 | 99 | 1013.6 |
| 20260504174421 | 15 | 85 | 12.9 | 16.1 | 0.00 | 0.00 | 0.00 | 99 | 1013.6 |
| 20260504173919 | 15 | 153 | 20.9 | 24.1 | 0.00 | 0.00 | 0.00 | 99 | 1013.7 |
| 20260504173414 | 15 | 153 | 20.9 | 24.1 | 0.00 | 0.00 | 0.00 | 99 | 1013.7 |
| 20260504172913 | 16 | 77 | 11.3 | 14.5 | 0.00 | 0.00 | 0.00 | 99 | 1013.8 |
| 20260504172408 | 16 | 77 | 11.3 | 14.5 | 0.00 | 0.00 | 0.00 | 99 | 1013.8 |
| 20260504171905 | 15 | 86 | 20.9 | 24.1 | 0.00 | 0.00 | 0.00 | 99 | 1013.8 |
| 20260504171402 | 15 | 86 | 20.9 | 24.1 | 0.00 | 0.00 | 0.00 | 99 | 1013.8 |
| 20260504170859 | 15 | 58 | 29.0 | 33.8 | 0.00 | 0.00 | 0.00 | 99 | 1013.8 |
| 20260504170355 | 15 | 58 | 29.0 | 33.8 | 0.00 | 0.00 | 0.00 | 99 | 1013.8 |
| 20260504160314 | 13 | 136 | 17.7 | 20.9 | 0.00 | 0.00 | 0.00 | 99 | 1013.7 |
| 20260504150739 | 12 | 118 | 22.5 | 25.7 | 0.00 | 0.00 | 0.00 | 99 | 1014.2 |
| 20260504150236 | 12 | 118 | 22.5 | 25.7 | 0.00 | 0.00 | 0.00 | 99 | 1014.2 |
| 20260504141205 | 11 | 51 | 14.5 | 20.9 | 0.00 | 0.00 | 0.00 | 99 | 1014.3 |
| 20260504140702 | 11 | 83 | 14.5 | 20.9 | 0.00 | 0.00 | 0.00 | 99 | 1014.1 |
| 20260504140157 | 11 | 83 | 14.5 | 20.9 | 0.00 | 0.00 | 0.00 | 99 | 1014.1 |
| 20260504130626 | 7 | 132 | 11.3 | 12.9 | 0.00 | 0.00 | 0.00 | 99 | 1013.7 |
| 20260504130123 | 7 | 124 | 11.3 | 14.5 | 0.00 | 0.00 | 0.00 | 99 | 1013.8 |
| 20260504110514 | 7 | 88 | 14.5 | 14.5 | 0.00 | 0.00 | 0.00 | 99 | 1013.8 |
| 20260504100430 | 6 | 145 | 14.5 | 17.7 | 0.00 | 0.00 | 0.00 | 99 | 1013.9 |
| 20260504081823 | 7 | 149 | 9.7 | 11.3 | 0.00 | 0.00 | 0.00 | 99 | 1015.2 |
| 20260504081320 | 7 | 149 | 9.7 | 11.3 | 0.00 | 0.00 | 0.00 | 99 | 1015.2 |
| 20260504080816 | 7 | 121 | 8.0 | 9.7 | 0.00 | 0.00 | 0.00 | 99 | 1015.3 |
| 20260504080313 | 7 | 121 | 8.0 | 9.7 | 0.00 | 0.00 | 0.00 | 99 | 1015.3 |
| 20260504070240 | 8 | 97 | 6.4 | 6.4 | 0.00 | 0.00 | 0.00 | 99 | 1016.1 |
| 20260504060201 | 9 | 21 | 3.2 | 3.2 | 0.00 | 0.00 | 0.00 | 99 | 1016.6 |
| 20260504050629 | 10 | 242 | 4.8 | 4.8 | 0.00 | 0.00 | 0.00 | 99 | 1016.9 |
| 20260504050126 | 10 | 242 | 4.8 | 4.8 | 0.00 | 0.00 | 0.00 | 99 | 1016.9 |
| 20260504045623 | 10 | 314 | 6.4 | 6.4 | 0.00 | 0.00 | 0.00 | 99 | 1016.8 |
| 20260504045118 | 10 | 314 | 6.4 | 6.4 | 0.00 | 0.00 | 0.00 | 99 | 1016.8 |
| 20260504044616 | 10 | 259 | 6.4 | 9.7 | 0.00 | 0.00 | 0.00 | 99 | 1016.9 |
| 20260504044112 | 10 | 259 | 6.4 | 9.7 | 0.00 | 0.00 | 0.00 | 99 | 1016.9 |
| 20260504043610 | 11 | 234 | 6.4 | 6.4 | 0.00 | 0.00 | 0.00 | 99 | 1017.1 |
| 20260504043107 | 11 | 234 | 6.4 | 6.4 | 0.00 | 0.00 | 0.00 | 99 | 1017.1 |
| 20260504042604 | 11 | 278 | 9.7 | 11.3 | 0.00 | 0.00 | 0.00 | 99 | 1016.9 |
| 20260504042100 | 11 | 278 | 9.7 | 11.3 | 0.00 | 0.00 | 0.00 | 99 | 1016.9 |
| 20260504041556 | 12 | 265 | 3.2 | 3.2 | 0.00 | 0.00 | 0.00 | 99 | 1016.9 |
| 20260504041053 | 12 | 265 | 3.2 | 3.2 | 0.00 | 0.00 | 0.00 | 99 | 1016.9 |
| 20260504040550 | 12 | 199 | 3.2 | 3.2 | 0.00 | 0.00 | 0.00 | 99 | 1016.8 |
| 20260504040047 | 12 | 83 | 1.6 | 1.6 | 0.00 | 0.00 | 0.00 | 99 | 1017.1 |
| 20260504035543 | 12 | 83 | 1.6 | 1.6 | 0.00 | 0.00 | 0.00 | 99 | 1017.1 |
| 20260504035040 | 12 | 145 | 3.2 | 3.2 | 0.00 | 0.00 | 0.00 | 99 | 1017.2 |
| 20260504034538 | 12 | 145 | 3.2 | 3.2 | 0.00 | 0.00 | 0.00 | 99 | 1017.2 |
| 20260504034034 | 12 | 129 | 0.0 | 0.0 | 0.00 | 0.00 | 0.00 | 99 | 1017.1 |
| 20260504033533 | 12 | 129 | 0.0 | 0.0 | 0.00 | 0.00 | 0.00 | 99 | 1017.1 |
| 20260504033030 | 12 | 156 | 6.4 | 11.3 | 0.00 | 0.00 | 0.00 | 99 | 1017.1 |
| 20260504032527 | 12 | 156 | 6.4 | 11.3 | 0.00 | 0.00 | 0.00 | 99 | 1017.1 |
| 20260504032023 | 12 | 27 | 3.2 | 4.8 | 0.00 | 0.00 | 0.00 | 99 | 1016.9 |
| 20260504031520 | 12 | 27 | 3.2 | 4.8 | 0.00 | 0.00 | 0.00 | 99 | 1016.9 |
| 20260504031016 | 13 | 87 | 6.4 | 9.7 | 0.00 | 0.00 | 0.00 | 99 | 1016.8 |
| 20260504030514 | 13 | 87 | 6.4 | 9.7 | 0.00 | 0.00 | 0.00 | 99 | 1016.8 |
| 20260504030010 | 13 | 251 | 3.2 | 6.4 | 0.00 | 0.00 | 0.00 | 99 | 1016.7 |
| 20260504025507 | 13 | 251 | 3.2 | 6.4 | 0.00 | 0.00 | 0.00 | 99 | 1016.7 |
| 20260504025004 | 13 | 27 | 3.2 | 3.2 | 0.00 | 0.00 | 0.00 | 99 | 1016.7 |
| 20260504024500 | 13 | 27 | 3.2 | 3.2 | 0.00 | 0.00 | 0.00 | 99 | 1016.7 |
| 20260504023958 | 13 | 166 | 12.9 | 14.5 | 0.00 | 0.00 | 0.00 | 99 | 1016.3 |
| 20260504023454 | 13 | 166 | 12.9 | 14.5 | 0.00 | 0.00 | 0.00 | 99 | 1016.3 |
| 20260504022950 | 13 | 153 | 8.0 | 11.3 | 0.00 | 0.00 | 0.00 | 99 | 1016.3 |
| 20260504022446 | 13 | 153 | 8.0 | 11.3 | 0.00 | 0.00 | 0.00 | 99 | 1016.3 |
| 20260504021943 | 13 | 178 | 11.3 | 14.5 | 0.00 | 0.00 | 0.00 | 99 | 1016.4 |
| 20260504021440 | 13 | 178 | 11.3 | 14.5 | 0.00 | 0.00 | 0.00 | 99 | 1016.4 |
| 20260504020937 | 13 | 154 | 9.7 | 12.9 | 0.00 | 0.00 | 0.00 | 99 | 1016.3 |
| 20260504020434 | 13 | 154 | 9.7 | 12.9 | 0.00 | 0.00 | 0.00 | 99 | 1016.3 |
| 20260504015931 | 13 | 172 | 4.8 | 6.4 | 0.00 | 0.00 | 0.00 | 99 | 1016.3 |
| 20260504015427 | 13 | 172 | 4.8 | 6.4 | 0.00 | 0.00 | 0.00 | 99 | 1016.3 |
| 20260504014923 | 13 | 139 | 4.8 | 9.7 | 0.00 | 0.00 | 0.00 | 99 | 1016.3 |
| 20260504014419 | 13 | 139 | 4.8 | 9.7 | 0.00 | 0.00 | 0.00 | 99 | 1016.3 |
| 20260504013916 | 14 | 211 | 8.0 | 11.3 | 0.00 | 0.00 | 0.00 | 99 | 1016.1 |
| 20260504013415 | 14 | 211 | 8.0 | 11.3 | 0.00 | 0.00 | 0.00 | 99 | 1016.1 |
| 20260504012910 | 14 | 271 | 6.4 | 9.7 | 0.00 | 0.00 | 0.00 | 99 | 1016.1 |
| 20260504012408 | 14 | 271 | 6.4 | 9.7 | 0.00 | 0.00 | 0.00 | 99 | 1016.1 |
| 20260504011905 | 15 | 246 | 8.0 | 11.3 | 0.00 | 0.00 | 0.00 | 99 | 1016.3 |
| 20260504011402 | 15 | 246 | 8.0 | 11.3 | 0.00 | 0.00 | 0.00 | 99 | 1016.3 |
| 20260504010858 | 15 | 139 | 8.0 | 12.9 | 0.00 | 0.00 | 0.00 | 99 | 1016.1 |
| 20260504010354 | 15 | 139 | 8.0 | 12.9 | 0.00 | 0.00 | 0.00 | 99 | 1016.1 |
| 20260504005850 | 15 | 273 | 9.7 | 16.1 | 0.00 | 0.00 | 0.00 | 99 | 1016.1 |
| 20260504005347 | 15 | 273 | 9.7 | 16.1 | 0.00 | 0.00 | 0.00 | 99 | 1016.1 |
| 20260504004845 | 15 | 244 | 6.4 | 9.7 | 0.00 | 0.00 | 0.00 | 99 | 1016.1 |
| 20260504004343 | 15 | 244 | 6.4 | 9.7 | 0.00 | 0.00 | 0.00 | 99 | 1016.1 |
| 20260504003839 | 15 | 161 | 16.1 | 20.9 | 0.00 | 0.00 | 0.00 | 99 | 1016.2 |
| 20260504003336 | 15 | 161 | 16.1 | 20.9 | 0.00 | 0.00 | 0.00 | 99 | 1016.2 |
| 20260504002832 | 15 | 274 | 9.7 | 16.1 | 0.00 | 0.00 | 0.00 | 99 | 1015.9 |
| 20260504002329 | 15 | 274 | 9.7 | 16.1 | 0.00 | 0.00 | 0.00 | 99 | 1015.9 |
| 20260504001827 | 16 | 289 | 6.4 | 11.3 | 0.00 | 0.00 | 0.00 | 99 | 1016.1 |
| 20260504001324 | 16 | 289 | 6.4 | 11.3 | 0.00 | 0.00 | 0.00 | 99 | 1016.1 |
| 20260504000821 | 16 | 262 | 9.7 | 14.5 | 0.00 | 0.00 | 0.00 | 99 | 1016.1 |
| 20260504000318 | 16 | 262 | 9.7 | 14.5 | 0.00 | 0.00 | 0.00 | 99 | 1016.1 |
| 20260503235815 | 15 | 152 | 25.7 | 30.6 | 0.00 | 0.00 | 0.00 | 99 | 1016.4 |
| 20260503235313 | 15 | 152 | 25.7 | 30.6 | 0.00 | 0.00 | 0.00 | 99 | 1016.4 |
| 20260503234810 | 15 | 199 | 24.1 | 29.0 | 0.00 | 0.00 | 0.00 | 99 | 1015.9 |
| 20260503234308 | 15 | 199 | 24.1 | 29.0 | 0.00 | 0.00 | 0.00 | 99 | 1015.9 |
| 20260503233806 | 15 | 166 | 16.1 | 24.1 | 0.00 | 0.00 | 0.00 | 99 | 1015.9 |
| 20260503233301 | 15 | 166 | 16.1 | 24.1 | 0.00 | 0.00 | 0.00 | 99 | 1015.9 |
| 20260503232758 | 15 | 129 | 6.4 | 9.7 | 0.00 | 0.00 | 0.00 | 99 | 1016.4 |
| 20260503232255 | 15 | 129 | 6.4 | 9.7 | 0.00 | 0.00 | 0.00 | 99 | 1016.4 |
| 20260503231753 | 16 | 164 | 16.1 | 24.1 | 0.00 | 0.00 | 0.00 | 99 | 1016.3 |
| 20260503231250 | 16 | 164 | 16.1 | 24.1 | 0.00 | 0.00 | 0.00 | 99 | 1016.3 |
| 20260503230745 | 16 | 125 | 14.5 | 20.9 | 0.00 | 0.00 | 0.00 | 99 | 1016.4 |
| 20260503230243 | 16 | 125 | 14.5 | 20.9 | 0.00 | 0.00 | 0.00 | 99 | 1016.4 |
| 20260503225741 | 15 | 180 | 22.5 | 27.4 | 0.00 | 0.00 | 0.00 | 99 | 1016.6 |
| 20260503225241 | 15 | 180 | 22.5 | 27.4 | 0.00 | 0.00 | 0.00 | 99 | 1016.6 |
| 20260503224738 | 16 | 256 | 11.3 | 14.5 | 0.00 | 0.00 | 0.00 | 99 | 1016.2 |
| 20260503224236 | 16 | 256 | 11.3 | 14.5 | 0.00 | 0.00 | 0.00 | 99 | 1016.2 |
| 20260503223733 | 15 | 151 | 9.7 | 16.1 | 0.00 | 0.00 | 0.00 | 99 | 1016.6 |
| 20260503223231 | 15 | 151 | 9.7 | 16.1 | 0.00 | 0.00 | 0.00 | 99 | 1016.6 |
| 20260503222727 | 15 | 38 | 12.9 | 17.7 | 0.00 | 0.00 | 0.00 | 99 | 1016.3 |
| 20260503222225 | 15 | 38 | 12.9 | 17.7 | 0.00 | 0.00 | 0.00 | 99 | 1016.3 |
| 20260503221723 | 15 | 167 | 20.9 | 24.1 | 0.00 | 0.00 | 0.00 | 99 | 1016.6 |
| 20260503221220 | 15 | 167 | 20.9 | 24.1 | 0.00 | 0.00 | 0.00 | 99 | 1016.6 |
| 20260503220717 | 15 | 167 | 16.1 | 20.9 | 0.00 | 0.00 | 0.00 | 99 | 1017.2 |
| 20260503220214 | 15 | 167 | 16.1 | 20.9 | 0.00 | 0.00 | 0.00 | 99 | 1017.2 |
| 20260503215710 | 16 | 158 | 24.1 | 25.7 | 0.00 | 0.00 | 0.00 | 99 | 1017.2 |